TimePST,TemperatureF,Dew PointF,Humidity,Sea Level PressureIn,VisibilityMPH,Wind Direction,Wind SpeedMPH,Gust SpeedMPH,PrecipitationIn,Events,Conditions,WindDirDegrees,DateUTC
12:51 AM,55.9,21.9,27,30.26,10.0,Calm,Calm,-,N/A,,Clear,0,2013-02-28 08:51:00
2:51 AM,51.1,27.0,39,30.25,10.0,East,3.5,-,N/A,,Clear,80,2013-02-28 10:51:00
3:51 AM,51.1,21.9,32,30.25,10.0,ENE,4.6,-,N/A,,Clear,70,2013-02-28 11:51:00
4:51 AM,48.9,24.1,38,30.27,10.0,ENE,4.6,-,N/A,,Clear,60,2013-02-28 12:51:00
6:51 AM,53.1,18.0,25,30.28,10.0,North,3.5,-,N/A,,Clear,360,2013-02-28 14:51:00
7:51 AM,61.0,21.9,22,30.30,10.0,Calm,Calm,-,N/A,,Clear,0,2013-02-28 15:51:00
8:51 AM,66.0,27.0,23,30.31,10.0,Calm,Calm,-,N/A,,Clear,0,2013-02-28 16:51:00
9:51 AM,72.0,14.0,11,30.31,10.0,ENE,3.5,-,N/A,,Clear,70,2013-02-28 17:51:00
10:51 AM,73.9,14.0,10,30.31,10.0,Calm,Calm,-,N/A,,Clear,0,2013-02-28 18:51:00
11:51 AM,75.0,19.9,13,30.30,10.0,SSW,8.1,-,N/A,,Clear,210,2013-02-28 19:51:00
12:51 PM,72.0,15.1,11,30.28,10.0,WSW,8.1,-,N/A,,Clear,240,2013-02-28 20:51:00
1:51 PM,71.1,16.0,12,30.27,10.0,WSW,9.2,-,N/A,,Clear,250,2013-02-28 21:51:00
2:51 PM,72.0,14.0,11,30.26,10.0,WSW,5.8,-,N/A,,Clear,250,2013-02-28 22:51:00
3:51 PM,69.1,41.0,36,30.26,10.0,SSW,6.9,-,N/A,,Clear,200,2013-02-28 23:51:00
4:51 PM,64.0,45.0,50,30.25,10.0,SSW,6.9,-,N/A,,Clear,210,2013-03-01 00:51:00
5:51 PM,61.0,44.1,54,30.27,10.0,SW,3.5,-,N/A,,Clear,230,2013-03-01 01:51:00
6:51 PM,59.0,46.9,64,30.28,10.0,Calm,Calm,-,N/A,,Clear,0,2013-03-01 02:51:00
7:51 PM,57.9,46.9,67,30.29,10.0,South,3.5,-,N/A,,Clear,190,2013-03-01 03:51:00
8:51 PM,54.0,46.0,75,30.30,10.0,Calm,Calm,-,N/A,,Clear,0,2013-03-01 04:51:00
9:51 PM,55.0,46.0,72,30.30,10.0,NNE,4.6,-,N/A,,Clear,20,2013-03-01 05:51:00
10:51 PM,54.0,45.0,72,30.30,10.0,NE,3.5,-,N/A,,Clear,40,2013-03-01 06:51:00
11:51 PM,55.0,42.1,62,30.30,10.0,East,4.6,-,N/A,,Clear,80,2013-03-01 07:51:00